スペースウォッチ-パンスターズ彗星

P/2014 MG4 ( Spacewatch-PanSTARRS )

English version
Home page
Updated on November 13, 2016

---------------------------------------------------------------------

・ プロフィール

発見日 2014年6月20日、7月25日
発見光度 19.4等
発見者 Spacewatch (Kitt Peak), Pan-STARRS 1 telescope (Haleakala)

・ 写真集

・ 軌道要素

Epoch 2013 May 28.0 TT = JDT 2456440.5
T 2013 June 13.53325 TT                                 MPCW
q   3.7143691            (2000.0)            P               Q
n   0.08784776     Peri.  298.86013     -0.32146841     +0.93912902
a   5.0116677      Node   311.86099     -0.80217860     -0.33811293
e   0.2588557      Incl.    9.36743     -0.50315758     -0.06096172
P  11.22
From 183 observations 2014 June 20-2016 Nov. 6, mean residual 0".5.

・ 光度変化

        m1 = 12.5 + 5 logΔ + 5.0 log r

---------------------------------------------------------------------

軌道要素はM.P.E.C. 2016-V116に掲載されたものです。
光度グラフはComet for Windowsで作成したものです。

---------------------------------------------------------------------

Copyright(C) Seiichi Yoshida (comet@aerith.net). All rights reserved.